COSMOS 1823 DEB, 39833

Orbit data source: Space-Track

COSMOS 1823 DEB, 39833 is space debris in LEO originally from a launch on Fri, 20 Feb 1987 UTC launched from the Plesetsk Missile And Space Complex (PKMTR). Debris objects in space refer to the collection of defunct objects orbiting the Earth. Examples of debris include non-operational satellites, rocket bodies, and fragments generated from explosions, collisions, or faulty payload assembly.

Loading next visibility...
Identifier
39833, 1987-020FH
Orbit
LEO
Country
Flag of CISCIS
Related business
Manufacturer
Unknown
Mission
Spacecraft
Bus & Motor
Unknown
Mass
Unknown
Launch date (UTC)
1987-02-20 (39 years ago)
Launch vehicle
Unknown
Launch site
Plesetsk Missile And Space Complex (PKMTR)
Object type
Payload
Rocket body
Debris
Shape & HBR
Unknown shape, 0.1 m
Radar Cross Section
Small (<0.1 m²)

Expand to show TLE details & history
Last TLE update: 1 week ago

TLE from 1 week ago
0 COSMOS 1823 DEB
1 39833U 87020FH  26167.10411906  .00000233  00000-0  14621-2 0  9991
2 39833  73.7780 102.0531 0019350 302.9914  56.9280 12.58969019552572
Epoch: 2026-06-16T02:29Z
TLE epoch observation values (Epoch: 2026-06-16T02:29:55.886Z)
Latitude
-0.00008°
Longitude
160.18927°
Altitude
1,421.359 km
Speed
7.154 km/s
True Right ascension
06h 48m 12s
True Declination
0° 00' 00"
Sunlit
Object was in daylight at epoch
Visualization orbit readout
Latitude
Unknown
Longitude
Unknown
Altitude
Unknown
Speed
Unknown
Apparent Right ascension
Unknown
Apparent Declination
Unknown
Sunlit
N/A
Visualization observer readout
Local Sidereal Time
01:45:19
Azimuth
Unknown
Elevation
Unknown
Doppler factor
Unknown
Orbital elements
Apogee altitude
1,440.146 km
Perigee altitude
1,409.948 km
Semi-major axis
7,803.184 km
Eccentricity
0.00194
Inclination
73.778°
RAAN
102.0531°
Arg. of periapsis
302.9914°
True anomaly
57.11406°
Mean anomaly
56.928°
Eccentric anomaly
57.021°
Mean motion
3.14873 °/min
Orbital period
114.33 mins
BSTAR
0.0014621
Loading maneuver chart data...
Computing Atmospheric mass density...

Documentation

Showing up to 5 results
|